Wind_Speed
44 52 54 61 70 73 74 79 76 69 65 65 67 65 58 59 57 34 19 14 8 10 11 9 8 13 30 49 50 55 54 55 59 53 49 48 46 47 49 46 46 43 49 52 48 49 50
44 52 55 60 67 76 75 76 72 68 64 63 63 56 53 63 70 52 21 13 15 13 15 12 7 8 21 41 48 51 54 49 58 54 51 45 46 43 45 44 44 44 47 51 49 48 49
45 51 54 61 66 72 74 75 70 66 62 60 60 46 54 65 66 62 45 19 14 15 16 14 7 8 15 33 47 51 52 48 54 54 51 43 46 45 42 43 43 43 45 46 47 49 59
44 49 49 59 65 68 72 73 70 63 59 57 52 46 54 63 65 63 53 39 19 17 11 7 4 6 12 23 38 46 50 47 49 56 48 43 40 46 43 42 43 43 39 40 42 48 53
43 46 47 57 65 67 70 72 69 61 56 53 49 44 52 59 56 58 63 49 39 26 22 10 3 7 9 18 34 35 42 44 46 54 41 41 36 45 45 44 43 45 37 34 36 45 46
41 43 47 52 60 67 69 70 67 60 54 50 49 41 50 62 55 51 57 61 54 51 33 22 3 4 7 14 33 35 35 42 46 52 36 39 36 42 44 41 39 38 44 35 37 38 41
39 44 47 48 55 63 66 68 68 58 52 47 45 37 46 52 58 48 54 60 54 52 49 38 12 6 7 14 26 43 36 40 48 60 43 32 32 32 39 39 36 34 33 34 30 35 39
37 42 46 49 52 61 64 65 66 58 51 44 41 32 37 43 47 48 46 51 53 47 50 42 32 13 7 12 22 40 38 39 45 49 48 41 29 28 33 36 32 31 32 31 35 33 33
36 40 47 48 50 57 58 63 66 58 51 43 36 29 29 35 39 43 47 43 49 43 45 45 37 32 18 15 25 39 40 39 39 43 40 39 33 26 32 32 33 31 28 29 28 33 33
33 39 45 43 51 52 55 59 63 61 50 42 35 28 21 27 29 35 41 38 43 43 43 41 40 32 23 22 31 38 44 43 39 36 39 37 38 26 28 30 30 30 30 28 28 30 32
34 38 44 46 49 48 51 56 59 61 55 44 35 29 19 16 19 27 34 33 34 41 45 33 38 30 27 37 31 21 41 52 45 38 43 36 33 32 22 25 28 25 27 28 25 26 29
35 39 43 46 46 49 48 53 59 60 57 47 39 29 22 17 14 21 29 28 30 31 39 34 30 24 26 33 29 27 21 44 45 26 32 32 30 29 25 24 25 22 25 25 26 29 32
37 42 44 46 44 51 44 50 55 58 60 53 39 32 24 15 15 16 22 24 26 26 24 26 30 23 21 19 21 24 28 28 35 33 26 29 29 26 23 26 29 30 28 29 30 32 32
37 40 43 46 41 50 42 48 51 55 57 57 47 37 25 19 14 16 17 23 25 24 22 20 19 23 25 8 18 23 20 18 21 21 25 27 24 25 27 28 25 25 27 31 32 30 24
35 40 44 45 44 43 43 44 48 52 57 57 52 41 31 24 18 15 21 19 21 23 19 15 14 15 18 16 11 16 17 15 14 12 20 24 26 37 34 28 26 25 28 27 31 24 19
33 38 42 46 44 42 46 42 45 51 55 56 54 46 36 30 21 18 17 19 18 18 18 14 7 7 9 10 11 8 7 11 14 16 18 19 17 30 39 32 28 26 22 30 30 29 28
37 40 43 46 45 44 44 40 43 47 52 57 56 47 41 31 26 19 18 17 18 17 13 10 5 3 3 6 7 7 3 9 10 16 17 16 18 21 28 32 28 28 28 36 35 32 29
41 44 45 45 45 44 41 38 42 46 48 52 56 51 44 34 29 25 19 18 17 15 11 9 5 3 2 4 6 6 5 7 5 16 16 14 14 18 24 26 28 29 24 27 31 28 24
45 46 44 47 41 43 41 37 40 43 43 49 54 52 49 44 35 29 24 20 18 18 15 13 11 8 6 5 5 7 10 9 9 10 12 12 11 12 14 21 27 30 30 30 28 27 26
44 49 48 48 42 40 41 40 42 44 45 47 52 55 51 47 42 34 30 23 22 20 20 17 15 13 11 8 8 7 9 11 12 13 15 16 17 17 16 17 21 25 28 32 31 29 22
46 49 48 47 42 40 39 41 42 44 48 50 52 58 59 53 49 47 35 28 23 23 22 20 19 18 16 14 11 12 13 12 13 15 16 16 17 19 20 21 22 22 23 28 31 24 23
49 49 48 42 40 40 38 43 40 45 51 56 57 59 60 59 55 55 44 32 27 24 26 25 21 22 22 19 17 16 15 15 15 16 17 19 18 21 22 23 25 27 27 22 24 28 27
52 51 48 40 38 39 37 42 43 45 49 54 58 59 60 60 59 57 53 47 36 27 29 28 26 22 24 23 21 20 19 18 17 19 20 20 19 20 22 24 25 28 24 27 27 27 28
53 55 46 36 37 37 38 42 42 46 49 55 58 61 60 60 62 61 63 52 42 29 26 30 30 28 25 23 22 19 19 19 19 20 20 21 21 20 18 23 25 19 22 25 26 27 30
58 58 41 37 37 36 39 41 42 46 51 54 58 59 59 61 66 69 67 50 41 31 28 25 32 30 31 26 26 23 18 18 17 22 21 20 24 25 24 22 19 18 20 22 24 23 23
59 57 39 38 39 39 41 43 45 48 52 53 56 58 59 64 72 74 67 58 51 43 30 28 27 33 30 34 30 28 23 19 18 16 20 20 20 22 22 21 19 15 17 18 20 19 17
61 54 42 40 39 37 39 47 52 52 53 53 55 58 59 64 67 69 76 65 57 41 30 31 27 27 29 32 37 33 28 25 21 17 16 18 18 18 21 19 15 15 18 16 17 17 16
60 44 42 43 41 41 44 49 50 53 48 51 57 59 65 68 64 69 77 67 53 35 29 27 27 25 30 31 33 39 33 29 26 21 19 17 21 16 19 18 18 17 16 15 17 17 19
48 43 43 41 42 44 44 49 50 46 48 54 56 59 65 71 70 71 75 66 56 31 25 26 26 25 28 29 32 35 40 31 27 27 24 18 19 21 18 16 16 17 16 17 17 18 17
Wind_Direction
355 355 357 356 358 356 355 356 356 356 358 358 359 358 2 6 3 360 349 349 350 342 344 327 251 218 211 208 215 205 206 203 198 193 200 202 202 205 210 206 210 214 207 208 222 210 199
353 352 354 357 359 357 355 356 358 358 359 0 359 2 10 17 23 16 359 345 332 318 329 336 290 226 198 200 207 209 203 199 193 189 195 200 200 204 209 209 211 212 212 213 219 220 208
349 351 353 358 1 358 355 356 359 360 2 5 2 8 22 20 20 23 28 355 335 322 313 317 293 205 182 186 199 206 204 199 190 184 193 193 198 199 205 208 209 216 221 211 207 214 214
345 349 353 357 358 356 355 358 0 1 3 8 9 8 21 19 24 27 28 27 11 359 340 331 219 166 182 176 187 205 204 195 194 187 188 195 199 197 200 207 209 213 218 218 206 210 215
344 349 351 355 357 356 355 358 0 2 5 8 11 16 22 25 29 32 33 36 35 32 32 27 169 132 155 180 179 190 205 191 186 180 185 196 200 198 200 204 208 214 220 224 212 209 215
343 344 348 352 357 354 355 358 1 3 5 9 12 20 29 34 32 30 29 32 38 40 36 40 99 117 129 170 178 168 191 193 179 174 183 190 199 201 201 205 208 211 217 225 227 219 216
341 344 348 350 355 355 353 357 1 5 6 10 14 29 41 36 36 32 30 32 30 36 40 33 33 44 111 158 173 171 186 185 177 174 179 177 192 200 200 205 207 208 214 219 225 227 228
341 344 346 348 350 356 353 357 0 5 5 10 17 32 42 35 30 32 28 26 30 30 32 39 47 49 129 144 166 173 175 179 179 177 185 190 188 193 198 204 209 208 211 213 220 226 226
341 342 345 346 346 356 355 356 357 6 6 9 13 24 43 39 33 30 28 35 35 31 36 40 36 49 73 139 159 166 168 169 176 176 182 192 195 192 197 202 205 210 212 219 224 226 231
338 339 343 340 347 353 354 354 355 1 6 8 9 19 26 39 34 26 26 26 30 34 35 39 36 46 69 109 146 157 157 157 165 168 184 191 189 194 195 200 206 210 212 217 221 225 226
335 336 340 340 347 344 351 353 353 356 3 5 8 7 9 15 31 23 22 27 25 29 32 36 40 68 72 103 108 136 160 162 166 174 187 193 201 204 202 206 209 207 216 221 229 235 231
334 336 337 338 340 343 349 350 352 353 357 6 4 5 0 347 352 2 15 21 28 28 38 49 48 58 57 103 108 104 153 159 162 164 171 188 196 194 197 199 204 207 217 225 235 242 241
328 331 334 335 336 345 346 348 348 350 354 359 1 2 358 345 324 330 356 360 17 25 31 35 47 49 49 61 78 125 127 161 183 183 188 195 185 203 219 226 216 209 215 224 233 239 242
319 329 332 333 331 342 338 346 347 346 349 353 358 358 356 347 311 297 329 344 358 13 31 38 42 54 53 73 98 141 151 142 153 180 201 200 206 202 208 207 208 216 222 234 240 248 260
318 323 329 332 330 332 336 339 342 344 347 351 353 356 351 349 338 298 303 322 346 356 16 37 38 53 51 59 110 136 158 195 191 183 197 210 218 213 209 211 214 220 229 238 245 247 254
319 327 326 328 326 329 328 336 342 340 342 348 350 354 347 346 337 327 307 300 313 340 358 7 40 67 94 68 98 78 136 178 204 212 202 207 204 211 214 223 225 232 237 244 234 246 261
313 319 327 326 323 326 325 326 334 336 337 340 347 352 350 340 336 328 321 308 299 307 333 347 5 56 126 155 139 140 105 183 196 200 198 207 208 203 215 227 233 239 238 229 232 245 270
312 314 320 323 322 323 324 326 328 326 330 336 338 349 353 350 331 326 316 315 301 299 301 315 302 291 262 218 191 184 182 166 192 181 184 190 204 217 221 228 231 227 225 217 234 248 262
310 313 315 320 318 319 321 321 330 327 328 330 334 340 350 351 341 324 315 303 296 286 286 291 290 265 259 239 223 200 200 199 190 189 197 205 218 223 221 220 218 225 233 239 236 241 251
309 310 311 316 313 315 319 318 323 327 328 328 331 335 338 350 355 338 315 301 288 283 278 274 276 266 256 248 238 224 216 214 218 215 215 223 230 230 230 223 222 226 234 234 239 241 258
306 310 308 311 310 311 316 316 321 324 326 329 330 331 334 344 350 352 332 306 290 273 272 267 269 264 256 253 247 236 227 223 230 239 239 234 231 235 237 236 235 236 239 240 240 243 247
299 304 304 307 305 305 310 312 318 320 323 328 330 331 332 337 344 348 351 328 296 272 259 262 258 262 259 257 255 246 237 229 231 232 235 239 237 238 237 238 236 233 235 235 232 233 243
292 298 300 302 299 304 308 310 314 319 323 323 327 330 331 335 339 344 343 340 319 282 258 254 255 254 257 257 255 252 244 238 239 240 238 235 237 242 238 241 242 240 244 240 233 232 237
288 293 300 294 294 300 303 309 314 316 322 324 326 329 331 333 335 338 338 340 332 291 273 252 247 248 246 250 249 243 244 240 238 240 244 245 245 244 241 240 243 245 243 249 248 242 245
287 291 293 291 292 298 301 306 313 317 321 322 324 327 330 331 332 337 337 338 330 311 272 259 246 243 244 239 243 245 242 242 244 243 244 247 251 250 243 242 245 239 240 246 250 250 252
285 287 291 295 291 292 298 300 309 315 320 321 322 325 328 331 332 338 338 338 324 315 265 254 249 243 247 243 240 242 245 246 246 250 240 246 244 238 238 243 245 245 239 243 247 248 252
283 284 286 293 291 294 296 298 300 304 312 318 319 322 324 330 336 335 336 335 327 311 262 247 247 244 238 245 242 241 241 243 249 253 248 243 234 238 237 239 239 236 238 240 233 233 237
280 283 287 290 292 293 295 296 299 304 307 314 317 318 323 325 332 336 336 334 324 299 261 246 243 247 236 237 242 241 242 242 245 246 248 249 233 236 234 238 232 230 229 232 229 229 225
280 280 286 287 288 290 293 294 297 301 304 310 311 314 319 323 331 338 336 331 320 300 268 248 244 246 238 233 233 241 238 238 239 238 238 241 233 228 231 229 228 232 228 228 229 229 230
Height
5817 5807 5797 5785 5772 5758 5745 5731 5713 5698 5685 5672 5658 5640 5620 5601 5583 5571 5566 5565 5563 5561 5558 5556 5555 5557 5561 5574 5583 5599 5610 5622 5633 5646 5661 5671 5680 5689 5697 5708 5715 5719 5728 5734 5736 5748 5760
5815 5804 5794 5782 5770 5756 5742 5728 5712 5697 5684 5671 5657 5640 5622 5607 5590 5573 5566 5566 5564 5562 5559 5557 5555 5554 5556 5567 5583 5591 5604 5617 5628 5641 5654 5665 5676 5685 5693 5702 5708 5717 5720 5725 5739 5747 5754
5812 5802 5792 5781 5769 5754 5741 5727 5711 5696 5683 5672 5657 5642 5628 5615 5597 5582 5570 5566 5563 5561 5558 5556 5554 5555 5557 5564 5574 5585 5599 5613 5624 5635 5651 5661 5669 5680 5688 5697 5705 5711 5714 5722 5733 5739 5748
5810 5800 5791 5779 5768 5752 5739 5726 5712 5696 5684 5673 5660 5646 5634 5621 5604 5589 5578 5569 5564 5559 5555 5553 5553 5557 5559 5563 5571 5581 5594 5609 5623 5634 5647 5659 5666 5674 5684 5691 5699 5706 5709 5715 5728 5734 5741
5807 5798 5789 5778 5766 5751 5739 5726 5712 5697 5685 5675 5663 5653 5641 5627 5614 5600 5589 5578 5570 5562 5558 5555 5555 5560 5562 5564 5570 5581 5593 5608 5621 5634 5646 5658 5663 5672 5679 5688 5695 5702 5708 5717 5726 5732 5738
5804 5796 5788 5777 5765 5751 5739 5727 5713 5700 5688 5678 5668 5659 5647 5634 5623 5611 5602 5592 5581 5572 5565 5561 5560 5565 5566 5567 5572 5583 5592 5607 5620 5633 5647 5654 5660 5670 5678 5686 5694 5701 5709 5714 5721 5729 5733
5802 5793 5786 5776 5765 5752 5739 5727 5715 5702 5690 5680 5672 5664 5653 5641 5631 5622 5612 5601 5594 5584 5575 5569 5567 5566 5567 5569 5574 5582 5592 5606 5618 5630 5640 5651 5661 5671 5678 5684 5692 5701 5707 5712 5717 5724 5728
5799 5791 5783 5775 5763 5753 5740 5729 5716 5705 5694 5684 5676 5668 5659 5648 5639 5630 5621 5612 5604 5598 5588 5580 5574 5570 5569 5572 5576 5583 5595 5608 5621 5633 5642 5652 5661 5669 5676 5683 5691 5698 5703 5708 5712 5717 5721
5796 5789 5782 5773 5763 5753 5742 5731 5718 5708 5698 5690 5680 5673 5666 5656 5646 5639 5631 5624 5616 5609 5600 5591 5585 5581 5576 5575 5578 5587 5598 5611 5624 5635 5645 5655 5663 5666 5674 5680 5687 5693 5699 5705 5710 5713 5718
5792 5786 5780 5771 5763 5753 5742 5732 5720 5709 5700 5692 5685 5678 5671 5662 5654 5646 5640 5633 5626 5620 5610 5602 5597 5592 5587 5584 5587 5594 5603 5616 5628 5636 5647 5653 5660 5666 5673 5678 5684 5690 5695 5700 5705 5708 5715
5789 5783 5777 5770 5763 5754 5744 5734 5721 5711 5701 5695 5687 5680 5673 5666 5659 5651 5646 5640 5635 5628 5621 5616 5611 5606 5602 5598 5603 5608 5613 5621 5632 5641 5649 5655 5660 5666 5672 5678 5683 5688 5693 5698 5700 5703 5708
5785 5780 5774 5769 5761 5753 5744 5734 5724 5713 5702 5695 5688 5682 5676 5670 5664 5657 5652 5648 5642 5637 5630 5629 5623 5618 5617 5614 5615 5619 5623 5627 5635 5640 5647 5655 5660 5665 5671 5675 5681 5685 5690 5693 5695 5697 5700
5782 5777 5771 5767 5759 5752 5744 5734 5725 5714 5705 5696 5688 5683 5678 5672 5667 5661 5655 5653 5649 5643 5639 5637 5633 5628 5626 5627 5625 5628 5630 5635 5639 5643 5649 5654 5659 5664 5670 5674 5677 5681 5685 5688 5690 5690 5693
5778 5773 5767 5763 5757 5751 5743 5734 5726 5715 5705 5696 5688 5683 5678 5673 5668 5663 5660 5657 5653 5649 5644 5642 5641 5638 5635 5633 5636 5637 5638 5642 5645 5649 5652 5656 5661 5664 5668 5671 5676 5678 5681 5684 5684 5687 5693
5773 5769 5763 5758 5754 5748 5742 5733 5725 5715 5706 5697 5689 5683 5676 5672 5668 5664 5662 5659 5656 5653 5649 5646 5645 5643 5641 5639 5641 5642 5643 5645 5647 5651 5654 5655 5658 5661 5664 5668 5672 5675 5676 5681 5681 5684 5686
5768 5764 5759 5753 5750 5746 5739 5732 5724 5714 5705 5696 5689 5681 5676 5671 5667 5663 5660 5657 5654 5652 5650 5648 5647 5646 5645 5644 5644 5644 5645 5646 5647 5649 5650 5653 5654 5656 5660 5663 5667 5670 5673 5673 5676 5679 5679
5761 5759 5754 5749 5745 5741 5736 5729 5722 5714 5704 5695 5689 5680 5674 5669 5664 5660 5656 5654 5652 5651 5650 5650 5648 5646 5646 5645 5645 5645 5645 5646 5645 5646 5648 5650 5653 5656 5657 5660 5665 5665 5667 5669 5674 5676 5675
5755 5753 5749 5744 5740 5736 5732 5727 5719 5710 5701 5694 5688 5681 5673 5666 5662 5657 5654 5652 5650 5649 5647 5647 5647 5647 5645 5644 5644 5644 5644 5645 5645 5645 5647 5648 5650 5651 5654 5656 5659 5661 5664 5667 5669 5672 5670
5749 5746 5742 5738 5734 5731 5728 5722 5716 5708 5700 5692 5684 5679 5671 5664 5659 5656 5651 5649 5647 5645 5643 5644 5643 5644 5643 5643 5642 5642 5643 5643 5643 5645 5646 5647 5648 5650 5650 5653 5653 5656 5659 5661 5663 5665 5665
5742 5739 5735 5732 5728 5726 5722 5717 5710 5703 5695 5688 5682 5676 5669 5663 5657 5654 5648 5645 5642 5641 5640 5638 5639 5639 5640 5640 5640 5640 5640 5641 5641 5642 5643 5644 5645 5647 5648 5649 5650 5652 5654 5656 5657 5658 5661
5734 5731 5728 5725 5722 5720 5716 5711 5704 5697 5690 5685 5678 5671 5663 5658 5653 5649 5645 5640 5637 5637 5636 5634 5634 5635 5635 5636 5637 5636 5636 5637 5638 5638 5639 5640 5641 5641 5641 5643 5644 5646 5647 5649 5652 5655 5654
5725 5723 5721 5719 5716 5713 5710 5704 5698 5692 5685 5679 5673 5666 5658 5653 5646 5644 5639 5635 5630 5629 5629 5628 5628 5629 5629 5631 5632 5631 5631 5632 5633 5634 5635 5635 5637 5637 5637 5638 5638 5640 5642 5644 5646 5648 5649
5715 5714 5714 5713 5709 5705 5703 5698 5692 5686 5681 5673 5667 5661 5654 5647 5640 5638 5634 5629 5623 5620 5618 5620 5622 5622 5622 5624 5625 5626 5626 5626 5627 5628 5629 5630 5631 5632 5633 5633 5633 5634 5637 5638 5640 5642 5644
5705 5703 5706 5704 5701 5698 5696 5692 5687 5681 5675 5669 5661 5653 5647 5640 5633 5628 5626 5622 5616 5611 5611 5609 5611 5613 5614 5616 5618 5619 5620 5620 5620 5621 5623 5624 5625 5625 5627 5627 5627 5631 5632 5633 5635 5637 5637
5694 5694 5696 5695 5693 5690 5688 5684 5680 5675 5669 5661 5655 5646 5639 5633 5627 5622 5616 5612 5608 5603 5600 5600 5601 5602 5604 5607 5610 5612 5614 5615 5615 5615 5616 5617 5618 5619 5620 5622 5626 5626 5626 5627 5628 5631 5632
5683 5684 5686 5686 5684 5682 5679 5676 5672 5668 5662 5655 5647 5641 5632 5623 5617 5613 5607 5601 5596 5591 5588 5588 5589 5592 5594 5596 5599 5603 5606 5608 5609 5610 5611 5611 5612 5613 5615 5617 5619 5621 5621 5622 5624 5626 5628
5674 5676 5677 5676 5674 5671 5670 5667 5662 5658 5653 5647 5639 5633 5625 5615 5608 5601 5595 5592 5585 5577 5575 5575 5578 5580 5583 5585 5588 5593 5598 5600 5603 5604 5605 5605 5607 5609 5609 5611 5615 5616 5616 5619 5621 5625 5623
5664 5667 5666 5666 5664 5663 5661 5656 5651 5646 5642 5636 5630 5623 5617 5609 5599 5591 5582 5577 5571 5563 5563 5567 5568 5571 5572 5575 5578 5583 5589 5592 5595 5598 5599 5600 5601 5604 5606 5607 5610 5611 5613 5616 5616 5617 5619
5656 5656 5656 5656 5654 5652 5650 5646 5641 5635 5633 5629 5620 5614 5608 5602 5594 5582 5569 5562 5558 5555 5554 5556 5560 5560 5561 5565 5571 5572 5578 5584 5588 5590 5592 5595 5597 5599 5602 5604 5605 5606 5608 5609 5611 5613 5615